Weather History for Big Bear City, CA

Change the Weather History Date:

Monday, December 10, 2012

  Actual Average (KBUO) Record (KBUO)
Temperature  
Mean Temperature 37 °F -  
Max Temperature 51 °F 59 °F 60 °F (1999)
Min Temperature 23 °F 42 °F 35 °F (1997)
Degree Days  
Heating Degree Days 28    
Moisture  
Dew Point 15 °F    
Average Humidity 46    
Maximum Humidity 63    
Minimum Humidity 28    
Precipitation  
Precipitation 0.00 in - - ()
Sea Level Pressure  
Sea Level Pressure 30.25 in    
Wind  
Wind Speed 2 mph (ENE)    
Max Wind Speed 10 mph    
Max Gust Speed -    
Visibility 10 miles    
Events      
Averages and records for this station are not official NWS values.
T = Trace of Precipitation, MM = Missing Value Source: NWS Daily Summary

Daily Weather History Graph

Daily Weather History Graph

Search for Another Location

Airport:

Trip Planner

Search our weather history database for the weather conditions in past years. The results will help you decide how hot, cold, wet, or windy it might be!

Date:

Astronomy

Dec. 10, 2012 Rise Set
Actual Time 6:43 AM PST 4:37 PM PST
Civil Twilight 6:15 AM PST 5:05 PM PST
Nautical Twilight 5:44 AM PST 5:37 PM PST
Astronomical Twilight 5:13 AM PST 6:07 PM PST
Moon 3:36 AM PST (12/10) 2:26 PM PST (12/10)
Length of Visible Light 10h 50m
Length of Day
9h 54m
Waning Crescent, 9% of the Moon is Illuminated
Dec 10
Waning Crescent
Dec 13
New
Dec 19
First Quarter
Dec 28
Full
Jan 4
Last Quarter

Hourly Weather History & Observations

Time (PST) Temp. Windchill Dew Point Humidity Pressure Visibility Wind Dir Wind Speed Gust Speed Precip Events Conditions
12:15 AM 28.4 °F 22.2 °F 12.2 °F 51% 30.28 in 10.0 mi East 5.8 mph - N/A   Clear
12:35 AM 28.4 °F - 12.2 °F 51% 30.27 in 10.0 mi Calm Calm - N/A   Clear
12:55 AM 26.6 °F - 12.2 °F 55% 30.27 in 10.0 mi Calm Calm - N/A   Clear
1:15 AM 26.6 °F - 12.2 °F 55% 30.28 in 10.0 mi Calm Calm - N/A   Clear
1:35 AM 26.6 °F - 12.2 °F 55% 30.28 in 10.0 mi Calm Calm - N/A   Clear
1:55 AM 26.6 °F - 14.0 °F 59% 30.27 in 10.0 mi Calm Calm - N/A   Clear
2:15 AM 26.6 °F - 12.2 °F 55% 30.28 in 10.0 mi Calm Calm - N/A   Clear
2:35 AM 26.6 °F 22.6 °F 12.2 °F 55% 30.28 in 10.0 mi East 3.5 mph - N/A   Clear
2:55 AM 24.8 °F - 12.2 °F 59% 30.28 in 10.0 mi Calm Calm - N/A   Clear
3:15 AM 24.8 °F - 12.2 °F 59% 30.28 in 10.0 mi Calm Calm - N/A   Clear
3:55 AM 26.6 °F - 12.2 °F 55% 30.27 in 10.0 mi Calm Calm - N/A   Clear
4:15 AM 26.6 °F - 12.2 °F 55% 30.27 in 10.0 mi Calm Calm - N/A   Clear
4:35 AM 24.8 °F 20.5 °F 12.2 °F 59% 30.27 in 10.0 mi ENE 3.5 mph - N/A   Clear
4:55 AM 24.8 °F - 12.2 °F 59% 30.27 in 10.0 mi Calm Calm - N/A   Clear
5:15 AM 24.8 °F 20.5 °F 12.2 °F 59% 30.27 in 10.0 mi ENE 3.5 mph - N/A   Clear
5:35 AM 23.0 °F 18.4 °F 12.2 °F 63% 30.26 in 10.0 mi East 3.5 mph - N/A   Clear
5:55 AM 24.8 °F - 12.2 °F 59% 30.27 in 10.0 mi Calm Calm - N/A   Clear
6:15 AM 23.0 °F - 12.2 °F 63% 30.28 in 10.0 mi Calm Calm - N/A   Clear
6:35 AM 23.0 °F 18.4 °F 12.2 °F 63% 30.28 in 10.0 mi East 3.5 mph - N/A   Clear
6:55 AM 23.0 °F - 12.2 °F 63% 30.28 in 10.0 mi Calm Calm - N/A   Clear
7:15 AM 24.8 °F - 12.2 °F 59% 30.28 in 10.0 mi Calm Calm - N/A   Clear
7:35 AM 28.4 °F - 15.8 °F 59% 30.28 in 10.0 mi Calm Calm - N/A   Clear
7:55 AM 30.2 °F - 17.6 °F 60% 30.28 in 10.0 mi Calm Calm - N/A   Clear
8:15 AM 32.0 °F - 17.6 °F 55% 30.28 in 7.0 mi Calm Calm - N/A   Clear
8:35 AM 33.8 °F - 19.4 °F 56% 30.28 in 10.0 mi Calm Calm - N/A   Clear
8:55 AM 39.2 °F 35.9 °F 17.6 °F 42% 30.28 in 10.0 mi East 4.6 mph - N/A   Clear
9:15 AM 42.8 °F 40.1 °F 17.6 °F 36% 30.28 in 10.0 mi East 4.6 mph - N/A   Clear
9:35 AM 46.4 °F 45.2 °F 19.4 °F 34% 30.29 in 10.0 mi ESE 3.5 mph - N/A   Clear
9:55 AM 50.0 °F - 21.2 °F 32% 30.28 in 10.0 mi Calm Calm - N/A   Clear
10:15 AM 50.0 °F - 19.4 °F 30% 30.28 in 10.0 mi East 5.8 mph - N/A   Clear
10:35 AM 50.0 °F - 19.4 °F 30% 30.28 in 10.0 mi Calm Calm - N/A   Clear
10:55 AM 51.8 °F - 19.4 °F 28% 30.28 in 10.0 mi WNW 5.8 mph - N/A   Clear
11:15 AM 50.0 °F - 21.2 °F 32% 30.28 in 10.0 mi North 5.8 mph - N/A   Clear
11:35 AM 50.0 °F - 21.2 °F 32% 30.27 in 10.0 mi WNW 4.6 mph - N/A   Clear
11:55 AM 50.0 °F - 19.4 °F 30% 30.26 in 10.0 mi North 5.8 mph - N/A   Clear
12:15 PM 50.0 °F - 19.4 °F 30% 30.25 in 10.0 mi East 4.6 mph - N/A   Clear
12:35 PM 50.0 °F - 19.4 °F 30% 30.25 in 10.0 mi ENE 6.9 mph - N/A   Clear
12:55 PM 50.0 °F - 17.6 °F 28% 30.24 in 10.0 mi NW 9.2 mph - N/A   Clear
1:15 PM 50.0 °F - 21.2 °F 32% 30.24 in 10.0 mi NNE 8.1 mph - N/A   Clear
1:35 PM 48.2 °F - 21.2 °F 34% 30.23 in 10.0 mi WNW 5.8 mph - N/A   Clear
1:55 PM 50.0 °F - 21.2 °F 32% 30.23 in 10.0 mi NNW 4.6 mph - N/A   Clear
2:15 PM 50.0 °F - 21.2 °F 32% 30.23 in 10.0 mi NW 4.6 mph - N/A   Clear
2:35 PM 50.0 °F - 19.4 °F 30% 30.23 in 10.0 mi NE 10.4 mph - N/A   Clear
2:55 PM 48.2 °F - 21.2 °F 34% 30.23 in 10.0 mi East 8.1 mph - N/A   Clear
3:15 PM 48.2 °F - 21.2 °F 34% 30.22 in 10.0 mi ENE 8.1 mph - N/A   Clear
3:35 PM 46.4 °F 44.3 °F 19.4 °F 34% 30.22 in 10.0 mi East 4.6 mph - N/A   Clear
3:55 PM 46.4 °F 43.5 °F 19.4 °F 34% 30.22 in 10.0 mi ENE 5.8 mph - N/A   Clear
4:15 PM 44.6 °F - 19.4 °F 37% 30.21 in 10.0 mi Calm Calm - N/A   Clear
4:35 PM 42.8 °F - 21.2 °F 42% 30.21 in 10.0 mi Calm Calm - N/A   Clear
4:55 PM 39.2 °F - 21.2 °F 49% 30.21 in 10.0 mi Calm Calm - N/A   Clear
5:15 PM 37.4 °F - 19.4 °F 48% 30.22 in 10.0 mi Calm Calm - N/A   Clear
5:35 PM 35.6 °F - 17.6 °F 48% 30.22 in 10.0 mi Calm Calm - N/A   Clear
5:55 PM 33.8 °F 30.8 °F 17.6 °F 52% 30.22 in 10.0 mi East 3.5 mph - N/A   Clear
6:15 PM 35.6 °F - 14.0 °F 41% 30.22 in 10.0 mi Calm Calm - N/A   Clear
6:35 PM 35.6 °F 32.8 °F 14.0 °F 41% 30.22 in 10.0 mi NE 3.5 mph - N/A   Clear
6:55 PM 35.6 °F 30.7 °F 10.4 °F 35% 30.22 in 10.0 mi ENE 5.8 mph - N/A   Clear
7:15 PM 35.6 °F 31.7 °F 10.4 °F 35% 30.22 in 10.0 mi ENE 4.6 mph - N/A   Clear
7:35 PM 32.0 °F - 12.2 °F 44% 30.22 in 10.0 mi Calm Calm - N/A   Clear
7:55 PM 32.0 °F - 12.2 °F 44% 30.22 in 10.0 mi Calm Calm - N/A   Clear
8:15 PM 32.0 °F - 12.2 °F 44% 30.22 in 10.0 mi Calm Calm - N/A   Clear
8:35 PM 32.0 °F - 10.4 °F 41% 30.21 in 10.0 mi Calm Calm - N/A   Clear
8:55 PM 30.2 °F - 12.2 °F 47% 30.22 in 10.0 mi Calm Calm - N/A   Clear
9:15 PM 30.2 °F - 10.4 °F 44% 30.22 in 10.0 mi Calm Calm - N/A   Clear
9:55 PM 28.4 °F 24.6 °F 10.4 °F 47% 30.22 in 10.0 mi SE 3.5 mph - N/A   Clear
10:15 PM 28.4 °F - 12.2 °F 51% 30.22 in 10.0 mi Calm Calm - N/A   Clear
10:35 PM 28.4 °F - 12.2 °F 51% 30.22 in 10.0 mi Calm Calm - N/A   Clear
10:55 PM 28.4 °F - 10.4 °F 47% 30.22 in 10.0 mi Calm Calm - N/A   Clear
11:15 PM 26.6 °F - 12.2 °F 55% 30.22 in 10.0 mi Calm Calm - N/A   Clear
11:35 PM 26.6 °F - 10.4 °F 51% 30.22 in 10.0 mi Calm Calm - N/A   Clear
11:55 PM 26.6 °F - 10.4 °F 51% 30.22 in 10.0 mi Calm Calm - N/A   Clear